sat.trackr.live / text

‹ back to catalog

STARLINK-6183

NORAD 56905 · 2023-083AF

PAYLOAD ACTIVE UNKNOWN

§ Identity

Operator
Country
US
Launch date
2023-06-12
Launch site
AFETR
Launch vehicle
Mass (kg)
RCS (m²)

Purposes: comms

External: N2YO · Heavens-Above · Gunter

§ Orbital elements

Epoch: 2026-09-19T18:19:54.486048Z

Period
94.27 min
Inclination
43.0035°
Eccentricity
0.0001779
Mean motion
15.27577270 rev/d
Perigee alt
481.8 km
Apogee alt
484.3 km
Semi-major
6,861.2 km
B*
7.6728e-6
RAAN
54.2884°
Arg perigee
268.0652°
Mean anomaly
91.9996°
Rev number
18,148

§ Raw data

STARLINK-61831 56905U 23083AF  26262.76382507 -.00000051  00000+0  76728-5 0  99982 56905  43.0035  54.2884 0001779 268.0652  91.9996 15.27577270181484

JSON: /api/v1/satellites/56905 · /tle

For live sub-satellite position, see the globe view (requires WebGL).

§ Visibility from observer

Set your observer location to see the next 7 days of passes ≥ 10°. The values pass through the URL so the page stays shareable.

No JS? Fill the form by hand. The geolocation button needs JavaScript.